Other Public Products
Issued by NWS Grand Forks, ND

Home | Current Version | Previous Version | Text Only | Print | Product List | Glossary Off
Versions: 1 2 3 4 5 6 7 8 9 10 11 12 13 14 15 16 17 18 19 20 21 22 23 24 25 26 27 28 29 30 31 32 33 34 35 36 37 38 39 40 41 42 43 44 45 46 47 48 49 50

000
FPUS83 KFGF 271231
OPUFGF
PRAIRIE TO PINES WEATHER ROUNDUP
NATIONAL WEATHER SERVICE EASTERN NORTH DAKOTA/GRAND FORKS ND
700 AM CDT SUN MAY 27 2018

 **SATELLITE DATA USED TO AUGMENT SKY COVER AT AUTOMATED STATIONS**
 *****  WEATHER ACROSS EASTERN NORTH DAKOTA  *****

CITY           SKY/WX    TMP DP  RH WIND       PRES   REMARKS
GRAND FORKS    CLOUDY    60  58  92 CALM      29.80R
6HR MIN TEMP:  57; 6HR MAX TEMP:  65;

GRND FORKS AFB LGT RAIN  61  61 100 N5        29.81R
GRND FORKS NWS   N/A     64  58  82 MISG      29.79R
BUXTON           N/A     64  60  86 E2          N/A
DEVILS LAKE    RAIN      63  61  94 NW10      29.93R FOG
6HR MIN TEMP:  63; 6HR MAX TEMP:  68; 6HR PCP:  0.08;

FARGO          RAIN      63  57  81 NE7       29.82R
6HR MIN TEMP:  61; 6HR MAX TEMP:  68; 6HR PCP:  0.02;

WAHPETON ARPT  CLOUDY    64  54  68 N7        29.88R
$$

 *****  WEATHER ACROSS CENTRAL AND WESTERN NORTH DAKOTA  *****

CITY           SKY/WX    TMP DP  RH WIND       PRES   REMARKS
JAMESTOWN      TSTM      66  60  81 NW22G41   29.89R
6HR MIN TEMP:  64; 6HR MAX TEMP:  73; 6HR PCP:  0.19;

BISMARCK       FAIR      68  59  73 NE23G32   29.79F
6HR MIN TEMP:  67; 6HR MAX TEMP:  78;

MINOT          FAIR      63  59  87 N10G18    29.79R
6HR MIN TEMP:  63; 6HR MAX TEMP:  74; 6HR PCP:  0.32;

MINOT AFB      FAIR      62  62 100 NE15      29.74F
6HR MIN TEMP:  62; 6HR MAX TEMP:  73; 6HR PCP:  0.33;

GARRISON         N/A     62  58  86 NE10      29.76S
6HR MIN TEMP:  62; 6HR MAX TEMP:  70; 6HR PCP:  0.23;

WILLISTON      FAIR      62  59  90 SW13      29.86R
6HR MIN TEMP:  61; 6HR MAX TEMP:  67; 6HR PCP:  0.50;

DICKINSON      FAIR      58  55  90 NE9       29.79S
6HR MIN TEMP:  58; 6HR MAX TEMP:  76;

HETTINGER      FAIR      62  54  74 NE17      29.81R
6HR MIN TEMP:  62; 6HR MAX TEMP:  71;

$$

 *****  OTHER OBSERVATIONS NORTHEAST NORTH DAKOTA  *****

CITY           SKY/WX    TMP DP  RH WIND       PRES   REMARKS
WALHALLA       DRIZZLE   63  63 100 NW9       29.91R
LANGDON        DRIZZLE   63  63 100 N10G17    29.92S
CAVALIER       LGT RAIN N/A N/A N/A NW14G22   29.90R
GRAFTON        FAIR      64  61  88 CALM      29.85R
CANDO          DRIZZLE   63  63 100 E28       29.77F
FORT TOTTEN      N/A     62  62 100 NW5       29.95S
ROLLA          LGT RAIN  61  61 100 NE24      29.74F
RUGBY          NOT AVBL
 ***** THE ABOVE OBSERVATIONS ARE NON NWS ARE NOT QUALITY
        CONTROLLED AND MAY MIS-REPORT RAIN FOR SNOW...
$$

 *****  OTHER OBSERVATIONS SOUTHEAST NORTH DAKOTA *****

CITY           SKY/WX    TMP DP  RH WIND       PRES   REMARKS
COOPERSTOWN    LGT RAIN  64  63  94 NW20G29   29.96R
VALLEY CITY    PTSUNNY   66  64  94 NW15G36   29.91R THUNDER
OAKES            N/A     70  61  73 E16G23    29.79S
GWINNER          N/A     68  63  83 E15G23    29.80F
SHEYENNE NWR     N/A     64  59  83 SE3       29.95S
BUFFALO          N/A     66  57  73 W14         N/A
WYNDMERE       NOT AVBL
 ***** THE ABOVE OBSERVATIONS ARE NON NWS ARE NOT QUALITY
       CONTROLLED AND MAY MIS-REPORT RAIN FOR SNOW...
$$

  *****  WEATHER ACROSS NORTHERN MINNESOTA  *****

CITY           SKY/WX    TMP DP  RH WIND       PRES   REMARKS
FLAG ISLAND    FAIR      66  61  82 CALM      29.84R
WARROAD        FAIR      63  59  88 CALM      29.85R
ROSEAU         FAIR      63  57  82 CALM      29.85R
HALLOCK        FAIR      64  61  88 NE6       29.84R
THF RVR FALLS  FAIR      62  58  86 CALM      29.83R
6HR MIN TEMP:  59; 6HR MAX TEMP:  65;

HALSTAD          N/A     66  54  63 SE17        N/A
FOSSTON        FAIR      63  54  72 CALM      29.84R
BAUDETTE         N/A    N/A N/A N/A MISG      29.81R
WASKISH        FAIR      64  61  88 CALM      29.82R
CROOKSTON      FAIR      64  59  82 CALM      29.83R
$$
  *****  WEATHER ACROSS CENTRAL AND WEST MINNESOTA  *****

CITY           SKY/WX    TMP DP  RH WIND       PRES   REMARKS
BEMIDJI        FAIR      60  58  92 CALM      29.84R
6HR MIN TEMP:  51; 6HR MAX TEMP:  59;

PARK RAPIDS    FAIR      60  56  86 CALM      29.82R
6HR MIN TEMP:  54; 6HR MAX TEMP:  63;

WADENA         FAIR      61  57  88 CALM      29.85R
DETROIT LAKES  FAIR      63  55  77 CALM      29.89R
MOORHEAD       LGT RAIN  70  55  60 E16       29.76F
FERGUS FALLS   LGT RAIN  66  57  72 NW13      29.86R
ELBOW LAKE     PTSUNNY   69  54  59 NW7       29.88R
6HR MIN TEMP:  67; 6HR MAX TEMP:  73;

MORRIS MN      FAIR      68  55  64 NW9       29.83R
STAPLES        FAIR      61  57  88 CALM      29.84R
WHEATON        NOT AVBL
$$
  *****  WEATHER ELSEWHERE ACROSS MINNESOTA  *****

CITY           SKY/WX    TMP DP  RH WIND       PRES   REMARKS
DULUTH         FAIR      63  58  83 CALM      29.83R
6HR MIN TEMP:  54; 6HR MAX TEMP:  63;

INTRNTL FALLS  FAIR      58  57  97 CALM      29.81R
6HR MIN TEMP:  50; 6HR MAX TEMP:  58;

ELY            FAIR      61  57  88 CALM      29.83R
CLOQUET        FAIR      61  55  82 CALM      29.83R
BRAINERD       FAIR      62  58  86 CALM      29.81R
6HR MIN TEMP:  56; 6HR MAX TEMP:  62;

HIBBING        FAIR      51  51 100 CALM      29.83R FOG
6HR MIN TEMP:  47; 6HR MAX TEMP:  55;

ALEXANDRIA     FAIR      69  54  58 CALM      29.83R
6HR MIN TEMP:  65; 6HR MAX TEMP:  70;

SAINT CLOUD    FAIR      62  56  80 CALM      29.81R
6HR MIN TEMP:  56; 6HR MAX TEMP:  63;

MINNEAPOLIS    PTSUNNY   71  64  78 CALM      29.80R
6HR MIN TEMP:  67; 6HR MAX TEMP:  76;

$$

  *****  WEATHER ACROSS SOUTH DAKOTA  *****

CITY           SKY/WX    TMP DP  RH WIND       PRES   REMARKS
SIOUX FALLS    PTSUNNY   67  56  67 CALM      29.79R
6HR MIN TEMP:  62; 6HR MAX TEMP:  69;

BROOKINGS      FAIR      67  53  61 SE10      29.80R
WATERTOWN      FAIR      68  53  58 SE8       29.79R
6HR MIN TEMP:  65; 6HR MAX TEMP:  71;

HURON          FAIR      71  57  61 S9        29.73R
6HR MIN TEMP:  70; 6HR MAX TEMP:  75;

SISSETON         N/A     69  62  78 N14G21    29.83R
ABERDEEN       FAIR      70  56  61 NE7       29.76R
6HR MIN TEMP:  66; 6HR MAX TEMP:  74;

MITCHELL       FAIR      71  58  63 S10       29.75S
PIERRE         FAIR      70  58  65 SW3       29.71R
6HR MIN TEMP:  66; 6HR MAX TEMP:  76;

MOBRIDGE       FAIR      74  58  57 CALM      29.73R
RAPID CITY     FAIR      68  59  73 NW22G36   29.82R
6HR MIN TEMP:  60; 6HR MAX TEMP:  70;

$$

  *****  SOME WEATHER IN NEARBY STATES *****

CITY           SKY/WX    TMP DP  RH WIND       PRES   REMARKS
GLASGOW MT     FAIR      62  56  80 N9        29.86F
6HR MIN TEMP:  61; 6HR MAX TEMP:  70; 6HR PCP: TRACE;

GREAT FALLS MT CLOUDY    59  49  69 S8        30.04R
6HR MIN TEMP:  51; 6HR MAX TEMP:  63;

CHEYENNE WY    FAIR      56  40  55 W9        29.93R
6HR MIN TEMP:  54; 6HR MAX TEMP:  68;

SCOTTSBLUFF NE FAIR      66  55  67 E5        29.80R
6HR MIN TEMP:  66; 6HR MAX TEMP:  76;

OMAHA NE       FAIR      74  62  66 S3        29.82R
6HR MIN TEMP:  70; 6HR MAX TEMP:  75;

DES MOINES IA  FAIR      74  69  85 CALM      29.81R
6HR MIN TEMP:  72; 6HR MAX TEMP:  78;

DAVENPORT IA   FAIR      71  66  84 S3        29.85R
6HR MIN TEMP:  65; 6HR MAX TEMP:  72;

CHICAGO IL     FAIR      75  67  76 SW3       29.85R
6HR MIN TEMP:  70; 6HR MAX TEMP:  75;

EAU CLAIRE WI  FAIR      64  61  90 CALM      29.81R
6HR MIN TEMP:  56; 6HR MAX TEMP:  66;

LA CROSSE WI   FAIR      71  67  87 SE3       29.81R
6HR MIN TEMP:  67; 6HR MAX TEMP:  73;

$$

  *****  SOME NATIONAL WEATHER *****

CITY           SKY/WX    TMP DP  RH WIND       PRES   REMARKS
LA GUARDIA NY  LGT RAIN  64  60  87 NE17      30.00R



USA.gov is the U.S. government's official web portal to all federal, state and local government web resources and services.